Location: Newark
(41.5175°N, 72.7122°W)
Time: 11:33:25
(UTC+00:00)

X-37B - Visible Passes

Search period start: 29 September 2020 00:00
Search period end: 09 October 2020 00:00
Orbit: 386 x 387 km, 45.0° (Epoch: 18 September)

Date Brightness Start Highest point End Pass type
(mag) Time Alt. Az. Time Alt. Az. Time Alt. Az.
01 Oct 2.9 00:05:38 10° SSW 00:06:26 14° S 00:06:26 14° S visible
01 Oct 2.9 23:08:40 10° SSE 23:09:43 11° SE 23:10:46 10° ESE visible
02 Oct 3.4 00:42:44 10° WSW 00:43:21 15° SW 00:43:21 15° SW visible
02 Oct 1.3 23:44:26 10° SW 23:47:22 36° SSE 23:47:47 34° SE visible
04 Oct 1.7 00:22:08 10° WSW 00:24:23 43° W 00:24:23 43° W visible
04 Oct 0.6 23:23:36 10° WSW 23:26:44 63° SSE 23:28:36 22° E visible
05 Oct 3.9 01:00:23 10° W 01:00:52 13° W 01:00:52 13° W visible
06 Oct 0.9 00:01:40 10° W 00:04:48 56° NNW 00:05:00 55° N visible
06 Oct 0.6 23:03:00 10° WSW 23:06:10 81° NNW 23:09:03 12° ENE visible
07 Oct 3.2 00:39:59 10° WNW 00:41:19 21° WNW 00:41:19 21° WNW visible
07 Oct 1.3 23:41:15 10° W 23:44:20 45° N 23:45:20 32° NE visible
08 Oct 1.0 22:42:33 10° W 22:45:40 56° NNW 22:48:49 10° ENE visible
